Find Starlink 5743

NORAD ID: 55597 Int'l Des: 2023-020 Owner: SPXS Country: US Constellation: starlink operational
LEOCIRCULAR

Live Position

Loading 3D Globe...

About Starlink 5743

Description loading...

Upcoming Passes

Passes for default location (London). Set your location on the main map for personalized predictions.

Altitude History

Loading altitude history...

Two-Line Element Set

1 55597U 23020AE 26106.40728736 .00000732 00000-0 36957-4 0 9996
2 55597 43.0014 140.7244 0001078 266.8438 93.2290 15.26747301174812
Epoch: Apr 16, 2026 • Age: 11 hours

Current Status

Altitude 486.9 km
Velocity 7.63 km/s
Sub-Earth Point 31.25°N, 18.69°E
Launch Date Feb 12, 2023
Age 3.1 years
Type internet

Technical Details

Classification Payload
Mass 305.00 kg
Dry Mass 290.00 kg
Total Mass 305.00 kg
Length 0.20 m
Diameter 2.80 m
Span 9.00 m
Shape Box + pan
Manufacturer SPXS
Bus Type Starlink
Phase Status In Orbit
Owner/State SPXS/US

Most Searched